Cosmos 1892 Rocket - Orbit

View from above orbital plane
View from above orbital plane
View from above satellite
View from above satellite

Ground track
Ground track

The orbit data is extracted from the following two-line orbital elements,

1 18422U 87088B   13168.86724838  .00000172  00000-0  18642-4 0  9583
2 18422 082.5133 104.5592 0019675 202.4392 214.3144 14.82058220385442
Epoch (UTC): 17 June 2013 20:48:50
Eccentricity: 0.0019675
inclination: 82.5133°
perigee height: 609 km
apogee height: 636 km
right ascension of ascending node: 104.5592°
argument of perigee: 202.4392°
revolutions per day: 14.82058220
mean anomaly at epoch: 214.3144°
orbit number at epoch: 38544

The dashed part of the orbit path shows where the satellite is in the earth's shadow,  

Developed and maintained by Chris Peat, Heavens-Above GmbH. Please read the updated FAQ before sending e-mail. Imprint. DLR